Atlanta Dekalb, GA

9:01 PM EDT on August 19, 2017 (GMT -0400)
Dekalb-Peachtree

Weather History for KPDK - May, 2013

Change the Weather History Date:

Thursday, May 2, 2013

  Actual Average Record
Temperature  
Mean Temperature 63 °F 66 °F  
Max Temperature 67 °F 77 °F 88 °F (2012)
Min Temperature 59 °F 54 °F 42 °F (2005)
Degree Days  
Heating Degree Days 2 2  
Month to date heating degree days 2 4  
Since 1 July heating degree days 179 2919  
Cooling Degree Days 0 3  
Month to date cooling degree days 0 6  
Year to date cooling degree days 35 55  
Growing Degree Days 12 (Base 50)    
Moisture  
Dew Point 56 °F    
Average Humidity 82    
Maximum Humidity 90    
Minimum Humidity 73    
Precipitation  
Precipitation T in 0.12 in 0.83 in (2004)
Month to date precipitation T 0.24  
Year to date precipitation 4.67 18.68  
Snow  
Snow 0.00 in - - ()
Month to date snowfall 0.0  
Since 1 July snowfall 0.0  
Snow Depth 0.00 in    
Sea Level Pressure  
Sea Level Pressure 30.15 in    
Wind  
Wind Speed 8 mph (ENE)    
Max Wind Speed 15 mph    
Max Gust Speed 22 mph    
Visibility 8 miles    
Events Rain    
T = Trace of Precipitation, MM = Missing Value Source: NWS Daily Summary

Daily Weather History Graph

Daily Weather History Graph

Search for Another Location

Airport or City:

Trip Planner

Search our weather history database for the weather conditions in past years. The results will help you decide how hot, cold, wet, or windy it might be!

Date:

Astronomy

May. 02, 2013 Rise Set
Actual Time 6:47 AM EDT 8:21 PM EDT
Civil Twilight 6:20 AM EDT 8:48 PM EDT
Nautical Twilight 5:48 AM EDT 9:20 PM EDT
Astronomical Twilight 5:14 AM EDT 9:54 PM EDT
Moon 2:12 AM EDT (5/2) 1:29 PM EDT (5/2)
Length of Visible Light 14h 28m
Length of Day
13h 34m
Waning Gibbous, 48% of the Moon is Illuminated
May 2
Waning Gibbous
May 9
New
May 18
First Quarter
May 25
Full
May 31
Last Quarter

Hourly Weather History & Observations

Time (EDT) Temp. Dew Point Humidity Pressure Visibility Wind Dir Wind Speed Gust Speed Precip Events Conditions
12:53 AM 61.0 °F 54.0 °F 78% 30.17 in 10.0 mi ENE 6.9 mph 18.4 mph N/A   Partly Cloudy
1:53 AM 60.1 °F 54.0 °F 80% 30.16 in 10.0 mi Variable 6.9 mph - N/A   Clear
2:53 AM 59.0 °F 53.1 °F 81% 30.15 in 10.0 mi East 8.1 mph 17.3 mph N/A   Mostly Cloudy
3:53 AM 59.0 °F 53.1 °F 81% 30.13 in 10.0 mi Variable 6.9 mph - N/A   Mostly Cloudy
4:16 AM 59.0 °F 53.6 °F 82% 30.15 in 10.0 mi ENE 8.1 mph - N/A   Mostly Cloudy
4:53 AM 59.0 °F 54.0 °F 83% 30.13 in 10.0 mi ENE 6.9 mph 16.1 mph N/A   Overcast
5:02 AM 59.0 °F 53.6 °F 82% 30.15 in 10.0 mi Variable 5.8 mph - N/A   Overcast
5:53 AM 59.0 °F 55.0 °F 87% 30.13 in 10.0 mi East 8.1 mph - N/A   Overcast
6:53 AM 59.0 °F 55.0 °F 87% 30.14 in 10.0 mi ENE 8.1 mph - N/A   Overcast
7:10 AM 59.0 °F 55.4 °F 88% 30.16 in 9.0 mi East 8.1 mph 16.1 mph 0.00 in Rain Light Rain
7:53 AM 59.0 °F 55.9 °F 90% 30.15 in 6.0 mi ENE 9.2 mph - 0.00 in   Overcast
8:53 AM 60.1 °F 57.0 °F 90% 30.16 in 10.0 mi ENE 8.1 mph 16.1 mph N/A   Overcast
9:53 AM 60.1 °F 57.0 °F 90% 30.17 in 10.0 mi Variable 5.8 mph - N/A   Overcast
10:53 AM 61.0 °F 57.0 °F 87% 30.18 in 10.0 mi East 8.1 mph - N/A   Overcast
11:27 AM 62.6 °F 57.2 °F 82% 30.20 in 10.0 mi Variable 6.9 mph - N/A   Overcast
11:53 AM 62.1 °F 57.0 °F 84% 30.19 in 10.0 mi East 8.1 mph 16.1 mph N/A   Overcast
12:11 PM 62.6 °F 57.2 °F 82% 30.20 in 10.0 mi ENE 10.4 mph 17.3 mph N/A   Overcast
12:53 PM 62.1 °F 57.9 °F 86% 30.18 in 7.0 mi East 5.8 mph 17.3 mph N/A   Overcast
1:02 PM 62.6 °F 57.2 °F 82% 30.19 in 7.0 mi Variable 6.9 mph - N/A   Overcast
1:53 PM 62.1 °F 57.9 °F 86% 30.18 in 10.0 mi East 8.1 mph - 0.00 in   Overcast
2:24 PM 62.6 °F 57.2 °F 82% 30.18 in 10.0 mi Variable 4.6 mph - N/A   Overcast
2:53 PM 63.0 °F 57.9 °F 84% 30.17 in 9.0 mi ENE 6.9 mph 18.4 mph N/A   Overcast
3:53 PM 66.0 °F 57.9 °F 75% 30.14 in 10.0 mi East 11.5 mph 19.6 mph N/A   Overcast
4:53 PM 64.9 °F 57.0 °F 75% 30.13 in 10.0 mi ENE 9.2 mph 21.9 mph N/A   Overcast
5:00 PM 64.4 °F 57.2 °F 77% 30.14 in 10.0 mi Variable 6.9 mph 19.6 mph N/A   Overcast
5:53 PM 64.9 °F 57.0 °F 75% 30.12 in 10.0 mi East 5.8 mph - N/A   Overcast
6:53 PM 64.9 °F 57.0 °F 75% 30.12 in 10.0 mi ENE 9.2 mph - N/A   Overcast
7:25 PM 64.4 °F 57.2 °F 77% 30.13 in 5.0 mi East 5.8 mph - 0.00 in Rain Light Rain
7:53 PM 62.1 °F 57.9 °F 86% 30.13 in 4.0 mi Variable 6.9 mph - 0.00 in   Overcast
8:07 PM 60.8 °F 59.0 °F 94% 30.14 in 2.5 mi East 9.2 mph - N/A   Overcast
8:53 PM 60.1 °F 57.0 °F 90% 30.14 in 2.5 mi East 9.2 mph 18.4 mph 0.00 in Rain Light Rain
8:58 PM 60.8 °F 57.2 °F 88% 30.15 in 2.5 mi ENE 9.2 mph 18.4 mph 0.00 in   Overcast
9:53 PM 60.1 °F 57.0 °F 90% 30.14 in 2.5 mi East 8.1 mph - 0.00 in   Overcast
10:00 PM 60.8 °F 55.4 °F 82% 30.15 in 10.0 mi ENE 8.1 mph 21.9 mph N/A   Overcast
10:53 PM 60.1 °F 55.9 °F 86% 30.14 in 10.0 mi ENE 9.2 mph - N/A   Overcast
11:53 PM 60.1 °F 55.9 °F 86% 30.13 in 10.0 mi ENE 11.5 mph 17.3 mph N/A   Overcast